Total_Precipitation_Accumulation
2.44 2.44 2.32 2.24 2.17 2.18 2.22 2.13 1.97 1.83 1.71 1.66 1.59 1.62 1.65 1.60 1.66 1.79 1.82 1.92 2.04 2.06 2.00 1.96 1.96 2.10 2.23 2.25 2.35 2.48 2.74 3.04 3.16 2.86 2.58 2.44 2.50 2.58 2.68 2.67 2.53 2.39 2.23
2.16 2.19 2.23 2.04 1.94 1.90 1.88 1.83 1.70 1.67 1.63 1.59 1.54 1.55 1.55 1.53 1.56 1.59 1.59 1.67 1.81 1.82 1.81 1.85 1.71 1.79 1.99 2.09 2.22 2.29 2.46 2.70 2.88 2.82 2.61 2.55 2.53 2.54 2.71 2.70 2.45 2.18 2.01
1.70 1.83 1.93 1.77 1.64 1.64 1.61 1.58 1.58 1.52 1.48 1.41 1.38 1.35 1.32 1.39 1.46 1.51 1.53 1.56 1.56 1.60 1.70 1.72 1.66 1.80 1.89 2.03 2.14 2.18 2.35 2.44 2.70 2.69 2.48 2.49 2.57 2.55 2.68 2.56 2.32 2.26 1.82
1.55 1.55 1.58 1.58 1.53 1.50 1.47 1.47 1.44 1.37 1.32 1.24 1.17 1.17 1.22 1.24 1.24 1.28 1.34 1.41 1.48 1.50 1.56 1.58 1.59 1.68 1.81 2.04 2.11 2.26 2.44 2.57 2.70 2.71 2.58 2.56 2.63 2.71 2.74 2.74 2.56 2.32 1.98
1.54 1.53 1.48 1.47 1.42 1.43 1.43 1.40 1.33 1.31 1.22 1.20 1.16 1.15 1.17 1.17 1.09 1.13 1.27 1.34 1.48 1.54 1.53 1.50 1.47 1.51 1.65 1.80 1.86 2.14 2.43 2.61 2.67 2.71 2.65 2.61 2.58 2.74 2.60 2.46 2.45 2.31 2.04
1.56 1.56 1.49 1.45 1.39 1.39 1.43 1.42 1.40 1.41 1.39 1.31 1.29 1.25 1.18 1.02 1.08 1.14 1.19 1.34 1.47 1.50 1.59 1.55 1.37 1.34 1.38 1.44 1.51 1.64 1.97 2.27 2.46 2.59 2.56 2.51 2.43 2.47 2.48 2.38 2.40 2.42 2.24
1.49 1.49 1.54 1.49 1.39 1.33 1.33 1.45 1.45 1.49 1.45 1.39 1.34 1.28 1.22 1.16 1.15 1.07 1.08 1.20 1.42 1.51 1.58 1.63 1.43 1.28 1.38 1.38 1.37 1.36 1.49 1.76 2.11 2.41 2.50 2.32 2.37 2.43 2.54 2.53 2.42 2.39 2.31
1.41 1.34 1.40 1.41 1.40 1.35 1.38 1.44 1.46 1.53 1.53 1.41 1.30 1.28 1.34 1.15 1.10 1.03 1.07 1.17 1.36 1.46 1.47 1.49 1.57 1.54 1.35 1.35 1.44 1.51 1.62 1.73 1.84 1.95 2.21 2.32 2.36 2.34 2.34 2.37 2.44 2.47 2.31
1.34 1.29 1.23 1.20 1.22 1.27 1.29 1.37 1.52 1.57 1.51 1.34 1.24 1.27 1.25 1.07 0.97 0.92 0.95 1.08 1.28 1.36 1.28 1.23 1.29 1.32 1.24 1.27 1.47 1.73 1.89 2.05 1.88 1.89 2.01 2.22 2.28 2.15 2.03 2.16 2.47 2.61 2.39
1.26 1.13 1.15 1.19 1.19 1.21 1.28 1.38 1.39 1.44 1.43 1.31 1.21 1.20 1.14 1.02 0.92 0.83 0.83 0.90 1.06 1.14 1.21 1.19 1.21 1.19 1.16 1.24 1.46 1.84 2.06 2.14 1.93 1.82 1.98 2.17 2.09 2.02 2.07 2.19 2.45 2.52 2.37
1.11 1.06 1.13 1.13 1.15 1.15 1.29 1.32 1.32 1.29 1.36 1.35 1.28 1.18 1.09 0.96 0.81 0.76 0.74 0.75 0.87 1.02 1.08 1.14 1.17 1.16 1.10 1.19 1.43 1.72 1.95 2.00 1.94 1.94 2.04 2.13 2.16 2.18 2.10 2.12 2.26 2.28 2.31
1.03 1.01 1.03 1.03 0.96 0.95 1.23 1.34 1.33 1.39 1.33 1.25 1.27 1.20 1.04 0.91 0.73 0.60 0.59 0.63 0.74 0.99 1.11 1.10 1.13 1.15 1.13 1.24 1.35 1.65 1.94 2.10 2.00 1.90 1.87 1.91 1.93 1.94 1.90 1.82 1.85 1.90 1.95
1.00 1.04 0.98 0.94 1.01 0.98 1.04 1.12 1.17 1.27 1.21 1.09 1.07 1.04 0.92 0.79 0.66 0.54 0.49 0.52 0.63 0.78 0.96 1.09 1.07 1.03 1.18 1.45 1.61 1.78 2.01 2.18 2.08 1.87 1.78 1.70 1.68 1.71 1.66 1.70 1.71 1.73 1.68
1.04 1.08 1.05 0.99 1.02 0.99 0.97 0.94 0.87 0.90 0.94 0.99 0.98 0.95 0.89 0.81 0.63 0.49 0.48 0.52 0.59 0.67 0.80 1.01 1.16 1.22 1.37 1.67 1.91 2.02 2.09 2.07 1.93 1.77 1.67 1.61 1.57 1.58 1.62 1.59 1.68 1.70 1.74
1.09 1.03 1.02 0.96 0.90 0.92 0.87 0.84 0.77 0.74 0.78 0.83 0.84 0.86 0.84 0.73 0.58 0.54 0.49 0.50 0.57 0.66 0.79 1.00 1.18 1.28 1.49 1.72 1.86 1.89 1.89 1.85 1.80 1.69 1.59 1.55 1.54 1.56 1.57 1.58 1.62 1.58 1.63
1.01 0.97 0.90 0.88 0.81 0.75 0.74 0.70 0.64 0.58 0.59 0.60 0.61 0.60 0.60 0.61 0.60 0.54 0.50 0.54 0.63 0.74 0.85 1.09 1.28 1.39 1.56 1.68 1.80 1.77 1.69 1.67 1.65 1.62 1.60 1.51 1.48 1.50 1.57 1.57 1.54 1.53 1.56
0.88 0.91 0.83 0.73 0.74 0.71 0.70 0.74 0.69 0.56 0.49 0.49 0.49 0.49 0.50 0.51 0.50 0.50 0.50 0.57 0.64 0.74 0.89 1.14 1.34 1.46 1.58 1.61 1.64 1.62 1.59 1.54 1.47 1.48 1.47 1.44 1.42 1.44 1.48 1.49 1.45 1.44 1.46
0.80 0.81 0.77 0.68 0.68 0.68 0.64 0.61 0.63 0.67 0.66 0.60 0.52 0.47 0.45 0.46 0.50 0.52 0.53 0.60 0.71 0.79 0.96 1.16 1.35 1.43 1.47 1.52 1.52 1.50 1.48 1.43 1.38 1.41 1.47 1.42 1.35 1.32 1.29 1.30 1.32 1.31 1.29
0.78 0.77 0.72 0.69 0.69 0.68 0.65 0.55 0.53 0.56 0.63 0.66 0.62 0.55 0.52 0.53 0.59 0.65 0.68 0.71 0.81 0.87 0.95 1.07 1.17 1.26 1.35 1.41 1.40 1.38 1.37 1.35 1.29 1.30 1.33 1.33 1.28 1.21 1.15 1.11 1.12 1.06 1.06
0.84 0.86 0.79 0.74 0.71 0.69 0.68 0.59 0.55 0.54 0.58 0.61 0.63 0.58 0.55 0.64 0.75 0.80 0.80 0.78 0.81 0.88 0.92 0.98 1.01 1.04 1.11 1.20 1.19 1.15 1.17 1.17 1.15 1.17 1.17 1.19 1.22 1.17 1.08 1.02 1.00 1.01 1.03
0.81 0.81 0.80 0.77 0.79 0.78 0.76 0.71 0.62 0.59 0.59 0.63 0.61 0.57 0.64 0.68 0.81 0.83 0.83 0.82 0.85 0.85 0.83 0.85 0.88 0.89 0.88 0.91 0.97 0.99 1.04 1.11 1.14 1.14 1.12 1.10 1.08 1.04 0.97 0.94 0.94 0.94 0.91
0.87 0.86 0.81 0.76 0.81 0.83 0.82 0.80 0.73 0.65 0.63 0.66 0.62 0.58 0.68 0.70 0.78 0.80 0.80 0.83 0.86 0.89 0.87 0.83 0.79 0.79 0.81 0.83 0.89 0.95 1.00 1.04 1.05 1.09 1.07 1.03 1.02 0.97 0.92 0.90 0.92 0.93 0.90
0.87 0.86 0.85 0.85 0.83 0.80 0.76 0.72 0.72 0.70 0.69 0.68 0.63 0.62 0.65 0.72 0.80 0.86 0.87 0.87 0.87 0.86 0.81 0.79 0.79 0.80 0.78 0.76 0.79 0.83 0.86 0.87 0.93 1.00 1.02 0.94 0.90 0.89 0.84 0.84 0.86 0.91 0.90
0.87 0.82 0.76 0.82 0.84 0.79 0.76 0.74 0.72 0.71 0.70 0.71 0.69 0.65 0.68 0.72 0.76 0.83 0.90 0.93 0.93 0.90 0.84 0.82 0.81 0.78 0.75 0.73 0.75 0.75 0.72 0.72 0.74 0.79 0.81 0.78 0.75 0.74 0.73 0.74 0.73 0.75 0.79
0.82 0.88 0.84 0.81 0.76 0.73 0.77 0.78 0.76 0.75 0.78 0.76 0.72 0.70 0.70 0.70 0.77 0.81 0.83 0.90 0.93 0.93 0.93 0.93 0.92 0.86 0.76 0.68 0.67 0.68 0.77 0.79 0.73 0.69 0.71 0.71 0.65 0.66 0.69 0.69 0.69 0.70 0.73
0.66 0.76 0.84 0.85 0.80 0.73 0.76 0.78 0.76 0.77 0.81 0.81 0.75 0.70 0.66 0.66 0.70 0.70 0.71 0.76 0.85 0.91 0.94 0.98 0.99 0.90 0.79 0.71 0.69 0.71 0.70 0.61 0.57 0.61 0.68 0.67 0.61 0.59 0.61 0.64 0.63 0.64 0.69